Back to catalog

STARLINK-32558

AliveCommunicationsVLEO
NORAD 62169·PAYLOAD·🇺🇸 United States

Launched Nov 30, 2024 from Vandenberg Space Force Base

Loading…

Next Passes (next 24 hours)

TLE

FreshSource: CelesTrak SupGP

Epoch: Sep 14, 2026, 22:47 UTC

1 62169C 24225G   26257.94979167 -.00016303  00000+0 -13661-2 0  2573
2 62169  70.0017  47.3152 0002705 271.3239  64.9988 14.98343760    14

Track STARLINK-32558 in real time with AllMySat

Download on the App Store